Regional Weather Roundup
Issued by NWS

Home | Current Version | Previous Version | Text Only | Print | Product List | Glossary Off
Versions: 1 2 3 4 5 6 7 8 9 10 11 12 13 14 15 16 17 18 19 20 21 22 23 24 25 26 27 28 29 30 31 32 33 34 35 36 37 38 39 40 41 42 43 44 45 46 47 48 49 50

000
ASUS43 KLSX 301807
RWRMO

WEATHER SUMMARY FOR MISSOURI
NATIONAL WEATHER SERVICE SPRINGFIELD MO
1200 PM CST FRI JAN 30 2015

NOTE: "FAIR" INDICATES FEW OR NO CLOUDS BELOW 12,000 FEET WITH NO
       SIGNIFICANT WEATHER AND/OR OBSTRUCTIONS TO VISIBILITY.
       CURRENT SKY AND/OR WEATHER CONDITIONS ARE NOT AVAILABLE FOR
       CHILLICOTHE AND FARMINGTON.

MOZ001>031-035>038-043-044-053-054-301900-
...NORTHERN AND WESTERN MISSOURI...

CITY           SKY/WX    TMP DP  RH WIND       PRES   REMARKS
KANSAS CTY INT CLOUDY    32  21  64 VRB3      30.53F
6HR MIN TEMP:  20; 6HR MAX TEMP:  32;

KANSAS C DTWN  MOSUNNY   35  20  54 CALM      30.55F
6HR MIN TEMP:  22; 6HR MAX TEMP:  35;

LEE`S SUMMIT   MOSUNNY   32  21  64 CALM      30.54F
6HR MIN TEMP:  22; 6HR MAX TEMP:  32;

ST JOSEPH      MOSUNNY   31  20  63 CALM      30.56F
6HR MIN TEMP:  12; 6HR MAX TEMP:  31;

CHILLICOTHE      N/A     32  20  61 S5        30.56F WCI  27
6HR MIN TEMP:  21; 6HR MAX TEMP:  32;

KIRKSVILLE     SUNNY     30  18  60 SE3       30.54F
6HR MIN TEMP:  17; 6HR MAX TEMP:  30;


$$
MOZ066>068-077>081-088>096-101>105-301900-
...SOUTHWEST MISSOURI...

CITY           SKY/WX    TMP DP  RH WIND       PRES   REMARKS
SPRINGFIELD    SUNNY     39  16  39 E5        30.50F
6HR MIN TEMP:  21; 6HR MAX TEMP:  40;

JOPLIN         SUNNY     39  24  55 CALM      30.54F
6HR MIN TEMP:  23; 6HR MAX TEMP:  39;


$$
MOZ032>034-039>042-045>050-055>058-069>072-301900-
...CENTRAL MISSOURI...

CITY           SKY/WX    TMP DP  RH WIND       PRES   REMARKS
COLUMBIA       SUNNY     34  20  56 E7        30.52F WCI  28
6HR MIN TEMP:  21; 6HR MAX TEMP:  34;

JEFFERSON CITY SUNNY     33  20  58 S7        30.54F WCI  27
6HR MIN TEMP:  22; 6HR MAX TEMP:  34;

ROLLA          SUNNY     34  19  54 NE3       30.49F
6HR MIN TEMP:  21; 6HR MAX TEMP:  34;

SEDALIA        SUNNY     34  22  61 CALM      30.55F
6HR MIN TEMP:  23; 6HR MAX TEMP:  35;

WHITEMAN AFB   MOSUNNY   33  21  61 SW6       30.54F WCI  27
WARRENSBURG    MOSUNNY   32  21  64 CALM      30.55F
OSAGE BEACH    SUNNY     36  19  51 E3        30.53F

$$
MOZ051-052-059>065-301900-
...EAST CENTRAL MISSOURI...

CITY           SKY/WX    TMP DP  RH WIND       PRES   REMARKS
ST LOUIS INTL  MOSUNNY   36  17  46 CALM      30.54F
6HR MIN TEMP:  28; 6HR MAX TEMP:  37;

SPIRIT OF STL  SUNNY     34  17  50 VRB3      30.53F
6HR MIN TEMP:  28; 6HR MAX TEMP:  35;

ST CHARLES     SUNNY     33  19  56 VRB3      30.54F
6HR MIN TEMP:  25; 6HR MAX TEMP:  35;


$$
MOZ072>076-082>087-097>100-106>115-301900-
...SOUTH CENTRAL AND SOUTHEAST MISSOURI...

CITY           SKY/WX    TMP DP  RH WIND       PRES   REMARKS
CAPE GIRARDEAU SUNNY     41  23  48 NE8       30.52F
6HR MIN TEMP:  30; 6HR MAX TEMP:  41;

FARMINGTON     SUNNY     36  19  51 N3        30.53F
6HR MIN TEMP:  27; 6HR MAX TEMP:  36;

POPLAR BLUFF   SUNNY     38  24  57 E8        30.52F
6HR MIN TEMP:  28; 6HR MAX TEMP:  39;


$$



USA.gov is the U.S. government's official web portal to all federal, state and local government web resources and services.